KF0AIT Weather Reports


time (UTC)temp
C
wind
direction
speed
KPH
gust
KPH
rain 1hr
cm
rain 24hr
cm
rain mn
cm
humidity
%
barometer
mb
20260901224503 23 349 1.6 4.8 0.00 0.00 0.00 60 1009.2
20260901223603 23 278 0.0 4.8 0.00 0.00 0.00 60 1009.2
20260901222703 24 0 0.0 0.0 0.00 0.00 0.00 61 1009.2
20260901221803 24 270 0.0 1.6 0.00 0.00 0.00 59 1009.2
20260901220903 24 270 0.0 1.6 0.00 0.00 0.00 59 1009.2
20260901220003 24 0 0.0 0.0 0.00 0.00 0.00 59 1009.2
20260901215403 24 0 0.0 0.0 0.00 0.00 0.00 59 1009.2
20260901214524 24 0 0.0 0.0 0.00 0.00 0.00 59 1009.2
20260901213624 24 45 0.0 1.6 0.00 0.00 0.00 58 1009.2
20260901212724 24 0 0.0 0.0 0.00 0.00 0.00 58 1009.2
20260901211824 24 0 0.0 0.0 0.00 0.00 0.00 58 1009.2
20260901210903 24 45 0.0 1.6 0.00 0.00 0.00 58 1009.2
20260901210003 25 0 0.0 0.0 0.00 0.00 0.00 58 1009.2
20260901205424 25 337 0.0 1.6 0.00 0.00 0.00 57 1009.2
20260901204503 25 0 0.0 0.0 0.00 0.00 0.00 57 1009.2
20260901203603 25 0 0.0 0.0 0.00 0.00 0.00 57 1009.2
20260901202724 25 0 0.0 0.0 0.00 0.00 0.00 56 1009.2
20260901201803 25 0 0.0 0.0 0.00 0.00 0.00 57 1009.2
20260901200903 25 45 0.0 1.6 0.00 0.00 0.00 57 1009.2
20260901200003 25 0 0.0 0.0 0.00 0.00 0.00 58 1009.2
20260901195403 25 315 0.0 1.6 0.00 0.00 0.00 59 1009.2
20260901194503 25 59 0.0 3.2 0.00 0.00 0.00 59 1009.2
20260901193603 24 0 0.0 0.0 0.00 0.00 0.00 60 1009.2
20260901192703 24 0 0.0 0.0 0.00 0.00 0.00 60 1009.2
20260901191803 24 0 0.0 0.0 0.00 0.00 0.00 61 1009.2
20260901190903 24 0 0.0 0.0 0.00 0.00 0.00 60 1009.2
20260901190024 24 0 0.0 0.0 0.00 0.00 0.00 59 1009.2
20260901185424 24 0 0.0 0.0 0.00 0.00 0.00 59 1009.2
20260901184503 24 0 0.0 0.0 0.00 0.00 0.00 59 1009.2
20260901183603 24 0 0.0 0.0 0.00 0.00 0.00 59 1010.2
20260901182703 24 0 0.0 0.0 0.00 0.00 0.00 60 1010.2
20260901181803 24 0 0.0 0.0 0.00 0.00 0.00 60 1010.2
20260901180903 24 0 0.0 0.0 0.00 0.00 0.00 60 1010.2
20260901180004 23 0 0.0 0.0 0.00 0.00 0.00 60 1010.2
20260901175403 23 0 0.0 0.0 0.00 0.00 0.00 61 1010.2
20260901174524 23 0 0.0 0.0 0.00 0.00 0.00 60 1010.2
20260901173603 23 0 0.0 0.0 0.00 0.00 0.00 60 1010.2
20260901172703 23 45 0.0 1.6 0.00 0.00 0.00 61 1010.2
20260901171803 23 45 0.0 1.6 0.00 0.00 0.00 58 1010.2
20260901170903 24 0 0.0 0.0 0.00 0.00 0.00 59 1011.3
20260901170003 23 0 0.0 0.0 0.00 0.00 0.00 59 1011.3
20260901165424 23 0 0.0 0.0 0.00 0.00 0.00 59 1010.2
20260901164503 23 67 0.0 1.6 0.00 0.00 0.00 59 1010.2
20260901163624 23 50 1.6 4.8 0.00 0.00 0.00 59 1010.2
20260901162703 23 43 0.0 4.8 0.00 0.00 0.00 62 1011.3
20260901161803 23 0 0.0 0.0 0.00 0.00 0.00 65 1011.3
20260901160903 22 0 0.0 0.0 0.00 0.00 0.00 65 1011.3
20260901160004 22 0 0.0 0.0 0.00 0.00 0.00 66 1011.3
20260901155403 22 0 0.0 0.0 0.00 0.00 0.00 66 1011.3
20260901154503 22 0 0.0 0.0 0.00 0.00 0.00 66 1011.3
20260901153603 22 0 0.0 0.0 0.00 0.00 0.00 66 1011.3
20260901152703 21 0 0.0 0.0 0.00 0.00 0.00 67 1011.3
20260901151803 21 0 0.0 0.0 0.00 0.00 0.00 68 1011.3
20260901150924 21 0 0.0 0.0 0.00 0.00 0.00 69 1011.3
20260901150004 21 0 0.0 0.0 0.00 0.00 0.00 71 1011.3
20260901145403 21 0 0.0 0.0 0.00 0.00 0.00 71 1011.3
20260901144503 20 0 0.0 0.0 0.00 0.00 0.00 72 1011.3
20260901143624 20 0 0.0 0.0 0.00 0.00 0.00 72 1011.3
20260901142703 20 0 0.0 0.0 0.00 0.00 0.00 73 1011.3
20260901141803 20 0 0.0 0.0 0.00 0.00 0.00 75 1011.3
20260901140909 20 45 0.0 1.6 0.00 0.00 0.00 78 1011.3
20260901140004 20 45 0.0 1.6 0.00 0.00 0.00 78 1011.3
20260901135403 19 0 0.0 0.0 0.00 0.00 0.00 78 1011.3
20260901134504 19 0 0.0 0.0 0.00 0.00 0.00 78 1011.3
20260901133624 19 0 0.0 0.0 0.00 0.00 0.00 78 1012.3
20260901132703 19 0 0.0 0.0 0.00 0.00 0.00 78 1012.3
20260901131803 18 0 0.0 0.0 0.00 0.00 0.00 79 1012.3
20260901130924 18 0 0.0 0.0 0.00 0.00 0.00 78 1012.3
20260901130004 18 0 0.0 0.0 0.00 0.00 0.00 78 1012.3
20260901125403 18 0 0.0 0.0 0.00 0.00 0.00 78 1012.3
20260901124503 18 0 0.0 0.0 0.00 0.00 0.00 77 1012.3
20260901123603 17 0 0.0 0.0 0.00 0.00 0.00 77 1011.3
20260901122703 17 0 0.0 0.0 0.00 0.00 0.00 78 1011.3
20260901121803 17 0 0.0 0.0 0.00 0.00 0.00 77 1011.3
20260901120924 17 0 0.0 0.0 0.00 0.00 0.00 77 1011.3
20260901120003 17 0 0.0 0.0 0.00 0.00 0.00 77 1011.3
20260901115403 17 0 0.0 0.0 0.00 0.00 0.00 77 1011.3
20260901114503 17 0 0.0 0.0 0.00 0.00 0.00 77 1011.3
20260901113603 17 0 0.0 0.0 0.00 0.00 0.00 77 1011.3
20260901112703 17 0 0.0 0.0 0.00 0.00 0.00 77 1011.3
20260901111803 17 0 0.0 0.0 0.00 0.00 0.00 80 1011.3
20260901110903 17 0 0.0 0.0 0.00 0.00 0.00 80 1011.3
20260901110024 17 0 0.0 0.0 0.00 0.00 0.00 78 1011.3
20260901105403 17 0 0.0 0.0 0.00 0.00 0.00 78 1010.2
20260901104503 17 0 0.0 0.0 0.00 0.00 0.00 78 1010.2
20260901103624 17 0 0.0 0.0 0.00 0.00 0.00 77 1010.2
20260901102704 17 0 0.0 0.0 0.00 0.00 0.00 77 1010.2
20260901101824 17 0 0.0 0.0 0.00 0.00 0.00 76 1010.2
20260901100903 18 0 0.0 0.0 0.00 0.00 0.00 75 1010.2
20260901100003 18 0 0.0 0.0 0.00 0.00 0.00 75 1010.2
20260901095403 18 0 0.0 0.0 0.00 0.00 0.00 74 1009.2
20260901094503 18 0 0.0 0.0 0.00 0.00 0.00 74 1009.2
20260901093603 18 0 0.0 0.0 0.00 0.00 0.00 74 1009.2
20260901092703 18 0 0.0 0.0 0.00 0.00 0.00 74 1009.2
20260901091824 18 0 0.0 0.0 0.00 0.00 0.00 74 1009.2
20260901090903 18 0 0.0 0.0 0.00 0.00 0.00 74 1009.2
20260901090003 18 0 0.0 0.0 0.00 0.00 0.00 74 1009.2
20260901085403 18 0 0.0 0.0 0.00 0.00 0.00 74 1009.2
20260901084503 18 0 0.0 0.0 0.00 0.00 0.00 74 1009.2
20260901083603 18 0 0.0 0.0 0.00 0.00 0.00 73 1009.2
20260901082703 19 0 0.0 0.0 0.00 0.00 0.00 73 1009.2
20260901081824 19 0 0.0 0.0 0.00 0.00 0.00 73 1009.2
20260901080903 19 0 0.0 0.0 0.00 0.00 0.00 73 1009.2
20260901080003 19 0 0.0 0.0 0.00 0.00 0.00 73 1009.2
20260901075403 19 0 0.0 0.0 0.00 0.00 0.00 73 1010.2
20260901074524 19 0 0.0 0.0 0.00 0.00 0.00 72 1010.2
20260901073603 19 0 0.0 0.0 0.00 0.00 0.00 71 1009.2
20260901072703 20 0 0.0 0.0 0.00 0.00 0.00 71 1009.2
20260901071824 20 0 0.0 0.0 0.00 0.00 0.00 71 1009.2
20260901070903 20 0 0.0 0.0 0.00 0.00 0.00 70 1010.2
20260901070024 20 0 0.0 0.0 0.00 0.00 0.00 70 1010.2
20260901065403 20 0 0.0 0.0 0.00 0.00 0.00 70 1010.2
20260901064503 20 0 0.0 0.0 0.00 0.00 0.00 70 1010.2
20260901063603 20 0 0.0 0.0 0.00 0.00 0.00 69 1010.2
20260901062703 20 0 0.0 0.0 0.00 0.00 0.00 69 1010.2
20260901061803 20 0 0.0 0.0 0.00 0.00 0.00 70 1010.2
20260901060903 20 0 0.0 0.0 0.00 0.00 0.00 70 1010.2
20260901060003 20 0 0.0 0.0 0.00 0.00 0.00 70 1010.2
20260901055424 20 0 0.0 0.0 0.00 0.00 0.00 70 1010.2
20260901054503 20 337 0.0 3.2 0.00 0.00 0.00 70 1010.2
20260901053603 20 0 0.0 0.0 0.00 0.00 0.00 70 1010.2
20260901052723 20 0 0.0 0.0 0.00 0.00 0.00 69 1010.2
20260901051803 20 0 0.0 0.0 0.00 0.00 0.00 69 1010.2
20260901050903 21 0 0.0 0.0 0.00 0.00 0.00 68 1010.2
20260901050003 21 0 0.0 0.0 0.00 0.00 0.00 68 1010.2
20260901045403 21 0 0.0 0.0 0.00 0.00 0.00 68 1010.2
20260901044505 21 0 0.0 0.0 0.00 0.00 0.00 68 1010.2
20260901043603 21 0 0.0 0.0 0.00 0.00 0.00 68 1010.2
20260901042703 21 0 0.0 0.0 0.00 0.00 0.00 67 1009.2
20260901041803 21 0 0.0 0.0 0.00 0.00 0.00 66 1009.2
20260901040903 21 0 0.0 0.0 0.00 0.00 0.00 66 1009.2
20260901040003 22 0 0.0 0.0 0.00 0.00 0.00 65 1009.2
20260901035403 22 0 0.0 0.0 0.00 0.00 0.00 66 1010.2
20260901034503 22 0 0.0 0.0 0.00 0.00 0.00 65 1010.2
20260901033603 22 0 0.0 0.0 0.00 0.00 0.00 65 1010.2
20260901032703 22 0 0.0 0.0 0.00 0.00 0.00 65 1010.2
20260901031803 22 0 0.0 0.0 0.00 0.00 0.00 64 1010.2
20260901030924 22 0 0.0 0.0 0.00 0.00 0.00 63 1009.2
20260901030003 22 0 0.0 0.0 0.00 0.00 0.00 62 1009.2
20260901025403 22 0 0.0 0.0 0.00 0.00 0.00 62 1009.2
20260901024503 22 0 0.0 0.0 0.00 0.00 0.00 61 1009.2
20260901023603 23 0 0.0 0.0 0.00 0.00 0.00 61 1009.2
20260901022703 23 0 0.0 0.0 0.00 0.00 0.00 60 1009.2
20260901021803 23 0 0.0 0.0 0.00 0.00 0.00 60 1009.2
20260901020903 23 0 0.0 0.0 0.00 0.00 0.00 59 1009.2
20260901020003 23 0 0.0 0.0 0.00 0.00 0.00 56 1009.2
20260901015403 23 0 0.0 0.0 0.00 0.00 0.00 56 1008.1
20260901014503 23 0 0.0 0.0 0.00 0.00 0.00 56 1008.1
20260901013603 24 0 0.0 0.0 0.00 0.00 0.00 56 1008.1
20260901012703 24 0 0.0 0.0 0.00 0.00 0.00 55 1008.1
20260901011803 24 0 0.0 0.0 0.00 0.00 0.00 54 1008.1
20260901010903 25 0 0.0 0.0 0.00 0.00 0.00 54 1008.1
20260901010024 25 0 0.0 0.0 0.00 0.00 0.00 53 1008.1
20260901005403 25 0 0.0 0.0 0.00 0.00 0.00 52 1008.1
20260901004503 25 0 0.0 0.0 0.00 0.00 0.00 52 1008.1
20260901003603 26 0 0.0 0.0 0.00 0.00 0.00 49 1008.1
20260901002703 26 0 0.0 0.0 0.00 0.00 0.00 49 1008.1
20260901001824 26 0 0.0 0.0 0.00 0.00 0.00 48 1008.1
20260901000903 26 0 0.0 0.0 0.00 0.00 0.00 49 1008.1
20260901000003 26 0 0.0 0.0 0.00 0.00 0.00 49 1008.1
20260831235403 26 0 0.0 0.0 0.00 0.00 0.00 47 1008.1
20260831234503 26 0 0.0 0.0 0.00 0.00 0.00 47 1008.1
20260831233603 27 0 0.0 0.0 0.00 0.00 0.00 48 1008.1
20260831232703 27 0 0.0 0.0 0.00 0.00 0.00 47 1008.1
20260831231824 27 0 0.0 0.0 0.00 0.00 0.00 46 1008.1
20260831230903 27 0 0.0 0.0 0.00 0.00 0.00 45 1008.1
20260831230003 27 0 0.0 0.0 0.00 0.00 0.00 45 1008.1
20260831225424 27 337 0.0 1.6 0.00 0.00 0.00 46 1008.1